Wind_Speed
25 22 22 22 22 24 26 27 27 27 28 31 33 34 37 42 47 52 56 60 62 63 65 67 69 70 68 67 70 72 73 76 74 69 67 62 55 55 57 57 56 54 52 50 49 47 45 42 40 39 37 35 32 30 29 28 28 27 26 25 24 23 22 22 21 22 22 22 22 22 21 19 18 17 15 14 13 12 11 10 10 10 10 10 11 12 13
22 20 20 20 21 22 24 26 26 26 27 29 31 32 34 38 43 47 52 58 61 63 66 68 70 71 69 67 70 72 72 75 76 71 67 64 60 56 55 55 55 54 54 53 51 50 47 44 41 40 40 39 36 33 32 31 30 29 29 27 26 25 24 23 23 23 24 24 24 24 23 22 21 20 19 17 15 14 13 12 12 12 13 13 14 14 16
19 18 18 19 20 20 22 25 25 25 26 28 29 30 31 35 40 44 49 54 59 62 66 68 70 71 70 67 69 72 72 74 77 75 69 66 64 59 55 54 53 54 55 56 54 52 50 46 42 42 43 42 40 37 36 34 32 31 30 29 28 28 27 25 25 25 26 27 27 27 26 25 24 24 22 21 19 17 16 16 16 17 17 16 17 18 18
17 17 16 16 17 18 21 23 24 24 26 27 28 29 29 32 37 41 45 51 56 61 65 67 68 70 72 71 70 71 73 75 78 78 73 68 67 62 56 55 55 53 53 56 58 56 53 50 46 44 44 44 43 40 39 39 37 34 33 31 29 29 29 28 28 28 28 29 30 30 29 28 27 27 26 24 23 22 21 20 21 22 20 19 19 21 21
17 15 15 15 16 18 20 21 22 23 24 25 26 28 27 29 33 38 42 47 52 58 63 65 67 69 72 73 72 72 74 76 78 79 75 70 69 65 58 55 58 56 51 51 57 59 57 54 52 50 47 46 45 43 42 41 38 35 34 33 30 29 30 31 32 30 29 32 34 34 32 32 31 30 29 29 27 26 25 24 25 26 24 22 23 24 23
16 14 14 14 15 16 16 18 20 21 22 24 26 27 26 26 29 34 39 44 49 54 60 64 66 69 72 73 73 73 74 76 78 79 76 71 70 68 62 57 58 59 54 50 52 59 62 58 55 55 51 47 46 45 43 41 38 35 35 34 33 31 31 34 37 37 36 38 38 36 35 35 34 33 32 33 32 31 30 29 29 29 28 27 28 28 27
15 13 13 13 13 13 13 15 17 19 21 24 26 26 25 25 27 31 36 42 47 52 59 64 67 70 73 74 74 73 73 75 77 77 76 73 72 72 68 60 57 57 57 54 51 54 60 60 57 57 56 51 48 46 44 42 39 39 39 37 36 35 34 37 40 41 41 42 40 37 37 37 36 35 35 35 35 35 35 34 33 33 33 32 33 32 31
14 13 13 13 12 12 12 12 14 17 21 23 24 24 25 26 27 29 32 38 45 50 56 63 68 71 73 76 76 74 73 75 76 76 76 75 73 74 72 66 60 57 57 57 53 52 56 59 59 58 57 55 51 46 43 41 41 42 43 40 38 37 37 40 42 41 42 44 42 40 39 37 37 37 38 38 38 38 38 38 38 38 37 37 37 37 36
13 12 12 12 12 11 12 12 12 14 17 20 23 24 24 26 27 28 30 35 41 48 54 61 67 72 73 75 77 75 74 77 78 76 76 75 74 74 73 70 66 60 57 57 56 53 53 54 57 58 57 57 55 50 46 44 43 43 45 43 40 37 39 44 46 44 44 45 46 44 42 39 39 39 39 40 40 40 41 41 41 41 41 41 40 40 39
12 11 11 11 10 10 12 12 11 11 12 16 21 21 22 25 27 28 30 33 37 45 52 59 65 71 74 74 77 77 75 78 79 78 76 75 74 74 73 71 67 62 58 57 56 53 52 50 50 53 55 56 55 53 52 50 47 46 47 45 41 40 44 49 50 48 47 48 49 48 46 43 41 39 40 41 42 43 44 44 43 41 41 41 40 39 40
10 10 10 10 8 9 12 12 11 12 12 13 16 17 20 25 26 27 30 32 35 41 49 56 62 68 73 74 75 76 77 79 80 78 77 76 74 73 73 72 69 62 57 57 57 54 54 54 52 51 54 57 56 54 54 53 51 49 47 46 45 45 48 51 50 49 50 52 53 51 48 45 42 40 39 40 42 44 45 45 45 43 42 40 38 39 40
10 9 8 8 7 8 11 10 10 13 13 12 13 15 19 23 24 25 29 32 34 38 44 52 59 64 71 74 75 75 77 79 80 79 79 78 75 74 73 72 71 67 58 56 60 61 59 58 58 58 58 59 59 58 57 56 55 53 50 50 51 49 48 49 49 47 48 53 56 55 51 47 45 43 42 43 44 44 43 44 44 44 43 41 39 40 42
9 8 9 8 6 8 12 10 9 12 13 13 13 14 16 19 22 26 29 31 33 35 40 48 56 61 67 73 76 77 78 80 81 81 82 80 77 77 75 69 69 70 63 57 61 66 63 59 59 61 60 59 59 61 62 61 59 57 55 54 55 52 50 52 52 48 48 52 55 56 54 50 48 46 47 48 49 48 47 46 45 43 42 40 40 42 43
10 10 11 8 6 10 13 10 9 11 12 12 14 14 13 16 21 25 29 30 32 33 35 42 51 58 65 71 76 78 79 81 83 82 83 83 81 80 78 70 66 67 64 60 63 67 67 64 62 59 56 54 55 57 61 64 64 61 59 58 57 54 53 55 53 50 50 53 53 53 54 53 51 50 51 53 53 51 50 50 50 48 44 42 41 43 44
12 11 9 7 8 13 13 10 10 13 12 12 14 15 14 15 19 24 27 29 30 31 32 36 45 54 62 69 75 78 79 82 84 84 84 84 83 82 80 74 69 66 64 63 66 68 68 68 68 63 57 53 52 52 57 63 66 66 63 62 61 59 57 57 55 52 52 53 53 52 53 53 53 54 55 55 54 53 53 53 53 52 49 47 47 48 50
14 11 9 11 14 15 13 12 13 15 14 13 15 16 15 15 18 21 24 27 28 30 30 32 38 48 59 67 73 77 79 82 84 85 85 84 82 82 81 78 75 71 67 66 69 70 69 70 72 71 66 62 59 55 55 61 67 69 68 66 65 65 64 63 62 61 59 58 58 58 57 57 56 58 58 56 54 52 51 51 51 49 48 49 50 51 53
16 14 14 17 18 17 16 16 17 18 16 16 16 16 15 16 19 19 21 24 26 28 29 30 33 42 53 64 71 76 78 81 82 83 85 85 82 81 82 81 79 76 73 71 72 73 71 71 74 77 76 74 72 65 59 60 66 70 72 71 69 68 68 68 68 68 68 67 67 68 67 64 62 62 64 63 60 56 53 52 53 52 51 52 53 56 58
19 17 17 20 20 19 19 19 19 19 20 19 17 16 15 17 20 20 19 21 24 26 27 28 31 37 47 59 69 74 76 79 81 81 82 84 84 82 82 82 81 79 77 75 75 76 73 71 74 79 81 81 81 76 68 64 66 68 71 73 73 71 71 71 71 72 73 73 73 73 72 69 67 66 69 71 70 68 65 64 64 64 64 64 65 66 68
23 21 21 22 23 23 23 22 21 22 23 22 19 18 18 19 22 22 21 20 21 24 25 26 28 34 42 53 64 72 74 76 79 81 79 81 85 85 84 82 80 80 81 79 78 78 77 73 75 80 83 83 84 82 77 72 71 70 70 72 74 75 75 74 73 74 76 76 75 74 72 70 68 66 68 73 75 74 72 72 72 73 73 73 73 72 72
26 25 24 24 24 25 26 25 24 24 25 24 22 21 20 21 22 23 22 21 20 21 24 25 26 30 38 48 58 68 72 74 77 80 78 78 83 88 86 82 79 80 83 84 82 81 80 77 76 79 83 85 86 86 84 81 78 76 75 74 75 75 75 75 75 76 77 78 77 76 74 72 69 66 66 69 71 72 73 73 74 75 75 75 75 75 75
29 29 28 27 27 27 28 27 26 26 27 26 23 23 23 23 22 22 22 22 20 20 22 24 25 27 33 42 53 64 70 72 75 79 78 77 81 87 88 83 78 78 83 87 88 86 83 81 79 80 82 85 87 89 90 88 85 82 80 79 79 78 77 76 75 76 77 77 77 76 74 72 71 70 69 69 69 70 71 72 74 75 75 74 74 74 74
33 33 32 32 30 30 30 29 28 28 29 27 25 24 24 25 24 22 22 22 21 20 21 23 25 26 29 36 47 58 66 69 72 77 79 77 78 83 88 86 80 76 80 86 89 90 88 85 83 82 82 83 86 89 92 93 91 87 84 82 82 82 81 80 78 77 77 77 77 77 76 73 72 72 72 71 70 69 70 71 73 74 75 75 75 76 77
36 36 37 36 33 33 33 32 30 29 29 29 28 27 26 26 25 24 23 22 22 21 20 21 24 26 28 32 41 52 61 66 70 75 78 77 76 79 85 88 85 79 78 82 86 89 90 88 87 86 85 84 84 86 90 93 93 91 88 86 85 85 86 86 85 83 81 80 79 77 76 75 74 73 73 74 73 72 73 74 77 79 80 82 83 83 83
38 38 38 37 35 35 34 33 31 31 30 30 30 30 29 27 26 26 25 23 22 22 22 21 23 26 28 31 37 45 55 62 68 74 77 76 74 75 80 87 89 85 81 80 82 85 87 87 87 88 89 88 85 84 87 92 94 93 93 90 88 88 88 89 89 88 87 85 83 79 77 76 76 76 77 77 78 79 80 82 83 85 85 86 86 86 85
39 38 38 37 36 35 36 35 34 32 31 32 32 32 31 30 28 28 27 25 23 24 24 23 23 23 27 31 35 42 50 58 64 70 75 76 73 72 76 84 88 88 85 82 81 82 83 83 85 88 90 91 89 85 84 88 91 94 95 94 92 91 90 90 90 90 90 90 90 88 84 82 82 82 83 84 85 86 86 85 84 84 84 85 86 86 86
41 40 40 39 37 37 38 37 35 34 32 33 33 33 33 32 30 30 29 27 25 25 25 26 24 23 24 29 35 40 46 54 61 67 73 77 75 72 73 79 85 88 87 85 82 82 82 82 84 87 90 92 92 89 86 85 87 91 94 94 94 93 92 91 91 90 91 92 93 94 93 92 90 89 88 88 88 88 87 86 85 84 84 85 86 86 86
44 44 43 41 40 41 41 39 37 36 34 33 34 34 35 34 33 32 31 30 28 27 27 27 26 25 25 27 33 38 43 49 57 65 71 76 77 75 73 76 81 86 88 87 86 85 84 84 84 87 91 93 93 92 89 87 86 88 91 92 92 92 92 92 91 89 88 89 90 92 93 94 95 94 93 92 91 91 91 90 88 87 86 84 84 85 86
44 44 44 43 44 45 43 41 40 38 36 34 35 35 36 36 35 34 33 32 31 30 29 28 28 28 27 27 30 36 41 46 52 61 69 74 78 79 77 75 77 81 84 85 86 87 86 85 85 85 89 92 93 91 90 89 88 88 89 91 91 91 91 91 90 89 88 86 85 85 85 86 88 90 91 92 93 94 94 93 91 89 88 86 85 86 88
42 42 43 44 45 45 44 43 42 40 38 37 37 37 37 37 37 37 36 35 33 33 32 32 31 30 29 29 30 34 40 45 49 55 64 72 78 80 81 79 78 79 80 81 84 86 86 86 86 85 86 88 90 91 90 89 87 86 87 88 89 90 89 89 88 89 88 87 86 84 83 83 85 87 88 90 91 92 93 93 92 91 90 90 90 91 92
42 42 43 44 45 44 43 43 43 41 40 40 39 39 39 39 39 39 38 37 36 35 35 34 33 32 31 31 31 33 37 43 48 51 57 65 74 79 82 83 82 82 81 80 82 85 85 85 86 87 86 86 89 91 92 91 89 86 85 85 85 86 87 87 87 87 87 87 87 86 85 86 87 88 90 91 93 93 93 93 93 93 93 93 94 95 97
42 43 44 44 44 43 43 43 42 42 42 42 41 41 41 41 40 40 40 39 38 37 36 36 36 34 32 32 33 34 36 40 46 50 52 58 66 74 80 83 83 84 85 84 84 85 86 85 84 85 86 87 88 90 92 93 92 91 88 86 85 84 84 84 85 85 85 85 86 87 87 88 88 88 89 90 92 93 94 94 94 94 95 97 99 100 103
43 45 46 45 44 43 43 42 41 42 43 43 42 42 42 41 41 41 41 40 39 38 37 37 37 36 35 34 34 35 36 38 43 48 51 53 58 65 73 79 80 80 82 84 86 86 88 88 86 84 85 87 88 90 92 93 93 93 92 90 88 86 85 83 83 84 85 86 87 88 89 89 90 91 92 92 93 94 95 95 96 98 100 102 104 106 108
45 46 47 46 44 43 43 42 43 44 44 43 43 43 43 42 41 41 41 40 39 39 39 39 39 38 38 38 38 38 38 39 42 46 50 52 53 57 64 72 76 76 75 77 81 85 87 89 89 87 87 87 88 89 91 93 93 93 93 92 91 90 89 87 86 86 86 87 89 89 90 90 92 93 94 95 96 97 98 99 100 101 102 103 105 106 108
46 47 47 46 44 44 44 44 44 44 43 42 42 42 42 42 41 40 41 41 40 40 41 41 40 40 40 41 42 41 40 41 42 45 49 51 51 52 56 62 71 76 75 73 75 80 83 86 89 90 90 90 89 89 90 91 93 93 93 92 92 92 92 91 91 90 91 91 91 91 92 92 92 93 94 95 97 98 99 100 100 101 101 103 104 105 106
46 47 46 44 43 43 44 44 44 43 42 41 41 41 41 41 41 41 41 42 42 41 42 42 41 42 42 42 41 40 40 41 41 43 47 49 48 49 52 56 63 71 74 74 74 77 80 83 86 88 90 91 91 90 89 90 91 93 93 93 92 91 91 92 92 93 94 95 96 96 96 95 94 94 93 94 96 97 98 98 98 98 99 100 101 103 104
44 44 42 41 40 41 42 43 43 42 41 41 41 40 40 41 41 41 42 42 41 41 41 41 41 41 41 40 38 38 39 40 40 41 45 48 48 49 51 54 58 64 68 71 73 76 79 81 83 84 86 87 88 89 89 89 90 92 93 93 92 91 91 91 91 92 94 96 98 100 100 100 100 99 98 98 98 98 98 99 99 99 100 100 101 102 103
40 40 39 39 40 41 42 42 42 42 42 41 40 39 40 40 41 41 41 41 41 41 41 40 38 37 37 37 36 35 36 37 39 40 43 46 48 49 50 51 55 59 64 67 70 74 78 80 81 81 82 82 83 84 86 87 88 89 90 91 92 92 91 91 91 91 93 96 98 101 103 104 104 105 104 104 104 104 103 104 104 104 105 106 106 107 108
39 39 39 40 40 41 41 42 42 43 42 40 39 39 40 40 40 40 41 41 41 41 40 37 34 32 33 34 33 32 32 34 37 39 42 44 47 49 50 51 52 55 59 63 67 71 76 80 81 80 80 80 80 81 82 84 85 86 88 89 90 91 91 91 92 92 92 94 96 99 102 105 107 109 109 110 110 110 110 110 111 111 111 111 112 113 113
39 39 39 39 40 40 41 42 42 42 42 40 39 40 40 39 39 40 40 41 41 40 38 34 31 29 30 30 30 30 30 32 33 37 40 44 46 49 51 51 51 52 55 59 63 67 73 78 80 80 79 80 80 80 80 81 82 83 84 85 87 88 89 90 91 92 92 93 94 95 98 101 104 107 110 112 114 115 115 116 116 116 117 117 118 118 119
39 39 38 38 39 41 41 42 42 42 42 41 40 40 39 39 40 40 40 41 41 39 36 33 31 30 29 29 29 29 29 29 30 33 36 40 44 47 49 50 50 51 53 56 59 62 67 72 77 80 81 81 80 80 80 81 81 82 83 84 85 87 88 89 90 91 92 93 94 95 96 98 100 103 105 108 111 114 116 117 119 120 120 121 122 123 124
39 39 39 39 40 42 42 42 43 43 43 42 41 40 40 40 40 41 41 41 41 39 35 33 33 33 32 30 29 28 27 27 28 30 32 36 40 43 46 47 48 49 51 53 56 59 61 65 71 77 81 82 82 81 80 80 81 81 82 84 85 86 88 89 90 91 92 94 95 96 98 99 101 102 104 105 107 109 112 114 116 118 120 122 124 126 128
40 40 40 40 41 43 43 44 44 45 45 44 43 42 42 41 41 42 43 42 41 38 36 34 34 35 34 32 29 27 25 24 25 28 30 33 35 38 40 42 44 46 47 50 52 55 57 60 64 68 73 77 80 82 83 83 83 83 84 85 86 87 89 90 92 93 95 96 97 99 100 101 103 105 107 108 110 111 112 113 115 117 119 121 123 126 127
41 42 43 43 44 45 45 46 46 46 47 46 45 45 45 44 42 42 43 42 40 38 36 35 34 34 34 32 30 26 23 22 23 26 30 33 34 35 36 37 39 41 43 45 47 50 53 56 58 61 64 67 71 75 79 81 83 85 86 87 89 90 91 93 94 95 97 98 99 101 102 104 105 107 108 110 112 114 115 116 117 118 120 121 123 125 126
44 45 45 45 46 47 47 47 48 48 48 47 47 47 46 44 42 41 41 41 39 37 36 36 35 34 32 31 30 27 26 25 24 25 28 32 36 38 39 38 38 38 39 40 42 45 48 51 53 56 58 61 63 67 70 74 77 80 83 85 87 89 91 92 94 96 97 99 100 101 103 105 106 108 109 111 112 114 115 116 117 119 120 121 123 124 126
46 47 48 49 49 49 49 49 49 48 47 46 45 45 43 41 40 40 40 40 39 38 38 37 35 33 31 31 30 29 30 30 29 28 28 30 33 37 39 40 40 39 39 39 40 42 45 48 50 52 55 57 58 60 62 65 68 71 74 76 79 81 83 85 87 89 91 93 95 97 99 101 103 105 106 108 110 112 113 114 116 117 118 118 119 120 121
45 44 45 45 42 39 38 38 38 37 36 36 36 37 38 38 39 40 40 40 40 40 39 37 33 30 30 30 31 31 33 34 34 33 33 32 33 34 36 37 39 40 40 41 42 43 45 47 49 51 53 55 57 59 61 63 65 67 69 72 74 76 78 80 82 84 85 87 89 91 93 95 97 99 101 103 105 106 107 108 109 109 109 110 110 112 113
31 29 30 29 27 24 24 24 22 19 20 21 23 25 30 34 36 38 39 39 38 36 33 30 29 29 28 29 30 32 34 36 37 37 37 37 37 37 37 39 40 41 42 43 45 46 47 49 51 52 54 56 58 60 63 65 67 68 70 72 73 75 77 78 80 82 84 85 87 88 90 92 93 95 96 98 99 100 100 101 102 103 104 105 106 108 109
20 21 22 25 28 30 28 23 17 14 15 17 20 24 27 30 32 33 33 30 28 25 24 25 27 27 27 26 27 29 32 35 38 39 41 41 42 42 42 43 43 44 45 46 47 48 49 51 52 53 55 56 58 60 62 64 66 68 69 71 73 74 76 78 80 81 83 84 86 88 89 91 92 93 94 96 97 98 100 101 102 104 105 106 106 107 107
16 20 24 27 28 28 27 24 19 17 19 22 25 27 26 24 24 23 23 21 20 20 21 23 24 25 26 26 26 27 29 33 36 39 42 44 45 46 47 48 48 49 49 50 51 53 54 55 56 58 59 60 62 63 65 66 68 70 71 73 74 76 78 79 81 83 85 86 87 89 91 93 94 95 97 98 100 101 102 102 103 103 103 103 102 102 101
15 21 27 29 28 25 24 24 22 20 23 26 27 24 20 19 19 19 19 20 20 20 20 22 23 24 25 25 25 26 27 30 33 37 41 44 46 48 50 51 52 53 53 55 56 57 58 60 61 62 63 65 66 68 69 70 72 74 75 77 79 81 82 83 85 87 89 90 91 92 94 96 97 97 98 98 98 98 98 98 97 97 96 96 96 96 97
16 21 25 26 25 23 22 22 22 21 22 23 22 19 17 19 21 21 21 21 21 20 21 23 24 24 24 24 25 26 28 29 30 32 35 38 42 47 50 51 53 54 55 57 59 60 61 63 64 65 67 68 70 71 72 73 75 76 77 79 80 81 81 83 84 86 88 88 89 89 90 91 91 92 91 91 91 91 91 91 92 92 92 92 92 92 93
18 19 20 22 24 23 20 20 24 24 21 19 18 18 18 19 20 22 23 23 22 21 22 23 23 23 24 24 25 26 28 29 30 30 31 32 35 38 41 44 46 49 51 53 55 57 58 60 61 62 63 64 64 65 65 66 67 67 68 70 71 73 74 75 77 79 80 81 82 82 83 84 85 85 85 86 86 86 87 88 88 88 88 88 88 88 88
Wind_Direction
252 256 260 261 261 261 262 261 259 257 254 252 248 241 236 233 228 225 224 220 218 218 216 212 209 210 211 210 209 210 208 208 211 212 211 210 208 211 222 225 220 217 219 220 222 223 224 225 224 224 223 221 220 219 220 222 223 223 225 228 230 233 235 236 236 238 239 240 240 240 239 238 237 236 234 230 227 224 222 221 218 215 212 210 208 202 204
252 257 259 262 262 261 262 263 260 259 257 254 250 244 238 235 230 225 224 221 218 218 217 213 210 209 211 210 209 209 208 207 210 213 211 210 208 207 213 222 225 221 219 219 221 222 222 222 222 223 223 222 220 219 219 221 223 224 226 229 232 236 239 240 241 242 243 244 245 244 243 242 242 242 241 240 239 238 238 239 236 234 229 225 224 220 215
249 254 258 262 264 264 264 263 261 259 258 257 254 247 238 234 230 225 223 222 219 217 217 214 211 209 210 210 209 209 209 207 209 212 211 208 208 205 203 210 219 221 219 219 220 220 221 221 221 222 223 222 220 219 217 218 220 223 225 228 232 237 241 243 244 245 246 246 247 247 246 244 243 243 244 244 244 246 247 247 248 247 241 235 235 235 229
243 250 259 265 267 266 264 263 260 257 257 257 256 251 241 233 230 224 221 221 219 217 216 214 212 210 210 210 209 209 209 208 209 211 211 208 207 205 201 204 212 217 218 218 218 219 220 220 221 222 223 223 222 220 219 218 217 218 220 223 228 235 241 245 245 247 250 251 250 248 246 246 244 243 244 245 246 248 250 252 253 254 251 246 246 247 244
242 249 260 266 266 267 267 265 262 257 256 257 256 253 245 235 230 224 219 219 220 218 215 214 213 211 210 210 210 208 208 208 209 211 212 210 206 204 201 204 210 215 217 217 216 217 219 220 221 223 224 224 223 221 222 222 220 219 221 220 221 227 236 243 244 242 241 242 244 244 243 243 243 242 243 246 248 250 252 253 255 257 258 255 253 253 252
243 249 259 266 271 274 274 271 265 259 255 254 253 252 248 239 231 225 220 218 219 218 214 213 213 212 210 209 209 208 208 208 209 211 213 211 207 204 203 204 208 213 216 217 216 215 217 219 221 222 224 225 225 224 224 225 224 225 226 224 220 221 228 238 242 238 231 231 235 238 239 241 242 243 244 245 247 249 250 251 253 256 259 258 255 254 254
244 249 257 268 276 281 281 276 267 259 252 251 251 251 249 243 234 227 223 219 219 218 214 211 212 211 210 209 208 207 207 207 208 210 213 212 208 206 207 207 206 208 213 217 217 215 216 217 220 222 223 225 226 225 226 227 226 225 227 227 224 222 223 230 238 241 239 237 237 238 237 239 242 243 245 245 246 248 250 252 254 256 256 255 255 254 254
243 248 255 264 273 283 289 286 275 263 254 251 251 249 247 245 238 231 227 223 221 220 215 212 212 211 211 210 209 207 207 207 207 209 211 212 211 210 211 211 208 206 210 216 217 216 215 216 218 221 223 225 225 223 224 228 228 228 230 230 228 228 230 232 237 242 244 242 241 240 239 239 241 243 245 247 248 250 253 255 257 257 256 254 254 255 255
239 244 252 261 270 281 289 295 290 278 265 255 251 248 246 247 244 238 233 227 223 222 218 215 213 212 211 211 210 208 207 207 207 208 209 211 212 213 212 213 211 208 209 214 216 217 218 218 219 221 222 225 226 225 226 230 232 232 233 233 232 232 236 240 241 243 245 244 243 243 243 244 244 244 245 247 248 250 253 256 257 258 258 258 257 257 257
231 237 247 256 267 278 286 296 303 298 282 262 254 251 248 247 244 241 239 234 227 223 221 218 216 213 212 211 210 209 208 207 207 208 208 210 213 214 213 212 212 212 212 213 213 215 218 219 220 223 225 228 230 231 231 233 234 234 234 235 234 230 234 241 245 245 245 243 242 242 243 246 246 246 247 249 250 250 251 252 254 256 260 263 262 261 259
222 228 238 249 260 274 284 296 303 299 295 281 267 257 249 247 246 244 243 239 233 227 223 221 218 215 213 212 210 209 209 207 207 207 208 209 212 215 215 213 213 214 215 215 213 212 214 217 218 221 226 230 233 234 235 235 234 232 232 236 238 237 238 241 245 245 242 240 241 241 241 243 246 248 249 250 250 251 251 252 252 253 256 260 262 262 261
214 221 233 246 252 264 280 295 298 297 304 305 286 264 251 250 249 247 246 242 237 232 227 223 220 216 214 212 211 210 209 208 207 208 209 209 211 215 216 215 214 213 215 216 213 212 213 215 218 221 224 228 232 234 235 235 234 232 231 234 239 242 243 241 242 244 242 239 240 240 239 242 247 249 250 249 249 250 252 255 256 255 255 258 260 261 260
214 219 234 245 244 257 273 288 292 296 310 314 304 288 268 258 252 249 249 247 242 237 232 226 222 217 214 212 212 211 210 209 208 209 209 210 211 213 215 216 214 213 215 215 212 214 215 214 216 222 225 227 232 235 234 232 233 233 231 232 235 238 240 240 242 245 244 243 243 241 241 245 249 249 250 250 251 250 250 252 255 257 257 257 257 256 257
219 224 239 254 248 253 269 285 288 296 314 319 315 312 293 271 258 252 251 250 248 243 237 231 225 219 214 212 212 212 212 211 210 209 210 211 212 213 214 215 213 212 214 212 209 213 217 215 215 218 221 222 226 232 232 230 228 230 230 229 230 233 235 239 242 243 243 246 247 245 244 246 247 247 248 250 251 252 251 253 255 255 255 254 252 253 256
227 232 246 258 246 253 277 298 289 292 309 317 317 322 313 288 269 258 254 253 252 249 244 237 229 222 216 213 212 212 212 212 211 210 210 211 213 214 214 215 213 211 212 210 207 210 215 216 214 214 215 217 219 223 227 226 224 225 227 228 229 232 234 238 240 239 239 242 246 247 247 246 246 245 246 249 252 254 253 254 256 256 254 252 251 255 260
234 240 247 250 251 264 285 291 280 285 299 304 309 319 321 303 284 271 262 257 255 254 250 242 234 226 219 215 213 213 213 212 212 212 211 211 214 215 215 216 215 213 213 211 207 208 212 214 214 213 213 218 223 225 225 224 223 223 225 226 228 231 235 238 241 241 241 243 247 251 251 250 247 245 245 246 250 252 251 252 254 254 253 251 252 256 260
241 246 248 253 260 270 275 273 275 284 291 292 299 312 316 308 301 292 278 266 260 257 254 247 239 231 223 218 215 214 213 213 213 214 213 212 214 216 216 216 215 215 215 213 210 208 210 213 214 214 214 219 225 227 225 222 223 224 224 225 227 230 233 237 241 244 246 248 251 253 254 253 250 247 245 244 245 247 248 248 250 250 250 251 254 257 261
248 252 254 258 264 267 268 271 276 280 281 284 292 300 301 301 306 309 301 283 270 263 258 252 244 235 227 220 216 214 214 215 214 213 213 214 214 215 216 216 216 215 216 215 213 211 212 213 215 217 218 220 224 227 227 225 225 226 227 228 229 230 232 235 239 242 246 248 251 252 254 254 254 252 249 245 244 246 247 249 252 253 255 256 258 260 262
249 254 258 262 268 269 269 270 270 271 275 280 284 288 289 293 303 312 315 304 286 272 264 257 249 239 230 223 218 215 215 215 214 212 213 215 215 215 216 217 217 216 216 216 215 215 215 215 216 218 220 222 224 227 228 228 228 228 229 231 232 232 234 236 238 240 243 246 247 249 251 253 255 255 252 248 246 247 250 252 254 256 258 259 261 261 263
249 253 258 264 270 271 268 267 267 268 271 274 278 281 284 289 298 308 315 316 302 283 271 263 256 246 233 224 219 216 215 215 214 212 213 216 216 215 215 216 217 218 218 217 218 219 219 219 218 218 219 221 224 226 228 229 230 230 230 231 232 233 234 236 238 240 242 244 245 246 249 251 252 253 253 251 249 250 252 254 256 257 258 260 261 262 263
253 256 259 263 267 268 267 266 266 267 269 271 274 277 279 285 293 301 308 314 312 296 279 269 263 255 241 228 220 216 215 215 215 213 213 216 216 215 215 215 217 219 220 220 221 223 224 224 223 221 219 220 223 226 227 228 229 230 230 230 232 232 232 233 235 238 240 242 244 245 247 249 250 251 252 252 251 252 253 255 257 258 259 261 263 264 266
255 258 260 262 264 266 265 265 266 267 268 270 270 271 275 281 288 294 299 306 310 304 289 274 266 261 250 235 223 218 216 216 215 213 213 216 218 217 216 216 216 219 222 222 222 225 227 228 227 226 223 221 222 225 227 228 228 230 231 231 231 232 232 231 232 235 238 240 243 244 245 247 248 250 251 250 250 251 252 254 256 258 260 262 265 268 269
254 257 259 261 263 263 263 264 265 265 266 266 267 268 270 275 281 286 291 296 302 303 297 282 268 261 254 242 229 222 218 217 215 213 212 215 219 220 218 218 218 220 223 224 224 226 229 231 231 230 227 225 224 225 227 228 228 229 231 232 232 232 232 232 232 234 236 239 241 244 245 246 246 247 249 250 250 251 253 256 259 260 261 263 266 269 270
253 255 258 260 261 261 262 263 264 263 263 263 265 266 267 270 275 279 284 289 294 297 297 290 275 263 255 247 236 227 222 219 216 213 212 214 217 220 221 219 218 220 223 225 225 227 231 234 235 234 231 230 228 227 227 228 228 229 230 232 232 233 233 233 234 235 236 238 240 242 244 245 246 247 248 250 252 254 256 259 260 262 263 264 266 268 268
253 255 257 258 259 260 260 261 262 262 261 261 262 264 265 267 271 274 279 284 287 289 292 292 285 271 259 250 243 234 228 223 219 216 214 214 216 220 222 220 219 220 222 225 226 229 231 235 237 237 235 233 232 230 229 228 228 230 231 232 234 235 235 236 236 237 237 238 239 241 242 244 247 249 250 252 254 256 258 259 260 261 262 264 265 266 266
256 255 256 257 258 259 259 259 260 261 260 259 260 262 264 265 268 271 275 279 281 282 285 288 289 282 266 253 246 241 234 229 224 220 217 215 215 218 222 223 220 220 222 225 229 231 232 234 236 237 237 236 235 234 233 231 230 230 231 233 234 236 237 239 239 240 240 241 241 242 243 245 247 250 252 254 256 257 259 260 261 262 262 262 262 263 263
258 258 258 258 258 258 258 259 259 259 259 257 257 259 261 263 266 269 272 275 276 277 279 282 284 284 275 259 248 243 239 234 229 224 221 218 217 218 221 223 223 223 224 227 230 232 233 234 235 237 237 237 237 236 236 235 234 233 233 234 235 237 238 240 241 242 243 244 245 245 246 248 249 251 253 255 257 259 260 262 262 261 260 259 259 260 261
261 260 260 259 258 257 258 259 259 258 257 256 256 258 260 262 264 266 269 271 273 274 275 277 279 280 278 269 255 245 240 237 233 229 225 222 220 219 220 223 224 224 225 228 231 233 234 234 235 237 238 238 238 238 238 238 238 238 237 238 238 239 240 241 243 244 245 246 248 250 251 252 253 254 256 257 258 259 260 260 260 258 257 257 258 259 261
263 262 259 258 258 258 257 257 257 256 255 255 255 257 259 260 261 263 266 268 270 272 273 275 277 278 278 273 263 251 243 238 236 232 228 225 223 221 221 222 224 224 225 228 232 234 234 235 235 237 238 239 239 239 239 239 240 240 240 241 242 243 243 244 245 246 246 247 249 252 254 255 256 257 258 258 258 258 258 257 257 256 255 256 258 260 261
263 262 260 258 257 257 256 255 255 255 254 254 254 255 256 257 259 261 264 266 269 271 273 274 275 277 278 275 267 257 248 241 237 235 232 229 227 224 222 223 225 226 227 230 234 236 236 236 236 236 238 240 241 241 241 240 240 240 241 241 242 243 244 245 246 247 248 248 249 251 252 254 255 255 256 256 256 256 256 255 254 254 254 255 258 261 263
262 261 259 257 256 256 254 254 254 253 253 253 254 255 257 258 259 261 263 266 268 271 272 273 273 274 276 276 270 262 254 246 240 237 234 232 230 228 225 224 226 229 230 232 235 237 237 238 238 238 238 239 241 242 242 242 242 241 240 241 241 241 242 244 245 246 247 248 249 250 250 252 253 254 254 254 254 254 253 253 253 253 255 258 261 263 265
260 259 258 258 257 255 254 253 252 252 252 252 254 256 258 259 260 261 263 265 268 270 271 272 273 273 274 274 271 264 258 252 244 238 235 234 232 231 228 225 225 228 232 234 237 238 239 239 240 240 240 241 241 242 242 243 243 243 242 241 241 240 240 240 242 244 246 247 248 249 250 251 252 253 254 255 255 255 254 254 254 256 258 260 262 264 265
260 259 259 259 257 254 251 250 249 249 250 252 254 256 258 259 260 261 263 265 267 269 270 269 271 273 274 273 271 265 259 255 249 241 236 234 233 232 231 227 225 226 230 233 236 238 239 240 241 242 243 243 243 243 243 243 244 244 244 243 243 242 241 239 240 241 244 246 248 249 250 251 251 253 254 255 256 256 256 257 257 258 260 260 261 262 263
260 259 258 257 255 252 251 249 249 249 251 253 255 256 258 259 259 261 263 265 267 268 269 270 272 274 275 274 271 264 257 254 251 244 238 235 233 232 232 229 226 226 228 231 233 236 238 239 240 241 242 243 244 245 244 244 244 245 245 246 245 245 244 242 241 241 242 244 246 248 249 250 251 252 253 254 255 256 257 257 258 259 259 260 260 261 262
256 255 254 253 252 251 251 251 251 252 252 253 254 256 257 259 260 261 263 265 267 268 270 273 276 277 276 273 269 263 256 252 250 245 238 235 233 231 231 229 227 226 228 230 231 234 237 239 240 241 242 243 244 245 246 247 246 246 246 247 247 247 247 246 245 244 244 245 246 247 248 249 250 250 251 252 253 254 255 256 257 257 258 258 259 260 261
250 250 250 250 249 250 252 253 254 255 255 254 254 256 257 259 261 262 264 266 268 269 272 276 280 280 277 272 268 262 255 251 248 243 237 233 230 229 229 228 226 226 227 228 229 230 233 237 240 241 242 243 244 245 246 248 248 248 248 249 249 249 249 249 248 247 246 246 246 247 248 249 249 250 251 251 252 253 253 254 255 256 256 257 258 259 260
246 247 247 248 249 250 252 254 255 256 256 256 257 258 259 261 262 264 266 268 269 272 276 280 281 278 274 272 269 262 254 247 243 240 235 231 229 228 229 228 227 226 226 226 227 228 230 233 237 240 242 244 245 246 247 248 249 250 250 250 251 251 251 251 251 250 249 248 247 248 248 249 249 250 251 252 253 253 254 255 255 256 257 258 258 259 260
245 246 247 248 250 252 253 255 256 257 258 260 260 261 262 263 265 267 269 271 273 276 280 282 280 276 273 271 269 263 253 244 239 236 233 230 228 227 227 227 227 227 227 227 226 227 228 229 232 236 239 242 244 246 247 249 250 251 252 253 253 253 253 253 253 253 253 252 251 250 250 250 251 251 252 253 254 255 256 257 258 258 259 260 260 261 262
246 248 249 251 253 254 255 257 258 259 260 261 262 263 265 266 269 271 273 274 276 279 281 280 279 278 276 273 268 263 255 247 240 236 233 230 228 227 227 227 227 227 227 228 227 227 228 229 231 233 236 240 242 245 247 248 250 251 253 254 255 255 255 256 256 256 256 256 256 255 255 254 254 254 255 255 256 258 259 260 260 261 262 262 263 264 265
248 249 251 252 254 255 255 257 259 261 262 262 263 265 267 270 272 273 274 275 278 280 279 277 276 280 282 278 270 264 258 251 244 237 233 231 229 227 227 228 228 228 228 228 227 227 228 230 231 233 235 238 240 243 245 247 249 251 252 254 255 256 257 258 258 259 259 260 260 260 260 259 259 259 259 259 259 260 261 262 264 265 265 266 266 267 268
250 250 251 252 253 255 256 257 259 261 263 264 265 266 268 271 272 273 274 277 278 277 275 274 274 278 282 280 272 264 257 251 243 237 232 229 228 227 226 225 226 228 229 229 229 229 229 230 232 234 236 238 240 242 244 246 249 251 252 254 255 257 258 259 260 261 261 262 263 263 264 264 264 264 264 264 264 264 264 264 265 266 267 268 269 270 270
250 251 251 252 254 256 257 258 260 262 263 265 267 268 268 270 271 272 274 276 276 274 271 271 273 275 279 278 270 261 252 244 239 235 232 229 228 228 228 227 226 227 229 231 231 232 232 233 233 235 237 239 241 242 244 246 248 250 252 254 256 257 258 260 261 262 262 263 264 265 266 266 267 267 267 267 267 267 267 267 268 268 269 270 270 271 272
251 252 252 253 255 257 259 260 262 263 264 266 267 268 269 270 270 270 272 273 272 269 268 268 270 273 275 271 264 255 247 239 236 235 235 233 231 230 229 229 229 230 230 231 232 233 234 236 237 238 240 241 243 244 245 247 249 251 253 254 256 257 259 260 261 262 263 264 265 266 267 268 268 269 269 270 270 270 271 271 271 271 272 272 273 274 274
255 255 256 256 256 258 260 261 262 263 265 266 268 269 270 269 268 268 268 268 267 266 265 267 269 270 266 260 253 247 242 237 236 236 236 235 234 234 233 232 232 233 234 235 236 237 238 240 242 243 245 246 247 247 248 249 251 252 254 256 257 259 260 261 262 263 264 265 265 266 267 268 269 270 270 271 272 273 273 274 274 275 275 276 276 277 278
260 259 259 259 259 259 260 260 261 262 263 264 264 265 265 264 263 263 264 264 264 264 264 266 266 262 254 248 244 239 233 232 235 239 240 238 236 237 237 236 235 235 236 238 240 242 243 245 247 249 251 252 254 254 255 255 255 256 257 258 259 260 262 263 264 265 266 266 267 268 268 269 270 271 272 272 273 274 275 276 276 277 278 278 279 280 280
262 262 260 259 256 256 257 258 257 256 257 259 259 260 260 260 260 261 261 261 262 263 263 261 256 248 242 240 240 235 230 227 229 234 240 242 241 240 240 240 240 240 240 241 243 244 246 248 249 251 253 254 255 257 257 258 259 260 260 261 262 263 264 265 266 268 268 269 270 271 272 273 273 274 275 275 276 277 278 279 279 280 280 281 281 281 281
255 252 248 240 229 225 234 245 250 252 257 262 266 267 266 264 262 262 262 261 262 260 255 247 240 235 235 239 240 238 233 230 228 229 233 238 240 242 242 242 243 244 245 246 247 248 250 251 252 253 255 256 257 259 260 261 262 263 264 265 266 267 268 269 270 270 271 272 273 274 274 275 276 277 278 279 280 281 282 282 283 283 283 283 284 284 284
229 221 214 205 198 199 209 225 243 260 269 274 281 282 277 269 264 262 260 258 254 247 238 231 230 232 236 240 243 242 241 238 235 232 232 234 236 239 241 242 244 245 246 247 248 250 251 252 253 255 256 258 259 261 262 263 264 265 266 267 268 268 269 270 271 272 272 273 274 275 276 277 278 279 280 281 282 282 283 283 284 284 285 285 285 286 286
204 195 189 186 187 193 204 220 238 257 268 277 287 289 282 269 260 255 250 244 239 237 234 233 234 236 239 242 244 246 247 246 244 242 240 239 238 239 240 241 243 245 246 247 248 250 251 252 253 254 255 257 258 259 261 262 264 265 266 267 268 269 270 271 272 273 274 274 275 276 277 278 279 280 281 281 282 283 283 283 284 285 285 286 286 287 287
192 183 181 181 181 185 199 217 237 259 275 284 289 288 275 258 248 243 239 235 235 238 241 242 242 243 244 244 245 247 250 251 251 249 248 247 246 245 245 245 246 247 248 249 250 251 253 254 255 256 257 259 260 261 263 264 266 267 268 269 270 271 272 273 274 275 275 276 277 277 278 279 280 280 281 281 282 283 283 284 284 285 285 286 287 287 288
183 182 185 186 181 180 193 218 242 267 285 290 286 276 260 247 242 238 236 235 237 240 245 249 250 250 250 249 249 250 252 254 254 254 253 253 252 252 252 253 253 254 255 255 256 257 258 259 260 262 263 264 265 267 268 269 270 270 271 272 273 273 274 274 275 275 276 277 277 278 278 279 280 280 281 282 282 283 284 284 285 285 286 286 287 287 287
179 182 187 190 189 185 192 217 243 264 284 291 280 265 253 246 242 239 237 236 239 244 248 250 252 252 254 254 254 255 255 254 254 255 256 256 256 256 256 257 258 259 260 261 261 262 263 264 265 266 267 268 269 269 270 271 272 272 273 274 274 275 275 275 275 275 276 276 277 277 278 279 280 281 282 282 283 283 284 285 285 286 287 287 287 287 288
Height
10797 10798 10798 10799 10799 10799 10799 10799 10799 10801 10801 10801 10802 10804 10806 10807 10810 10814 10819 10824 10830 10834 10838 10845 10852 10856 10861 10867 10873 10879 10886 10894 10901 10907 10912 10917 10924 10932 10936 10940 10946 10950 10953 10956 10959 10962 10965 10968 10971 10974 10977 10979 10981 10983 10984 10985 10986 10987 10989 10990 10992 10993 10995 10996 10997 10998 10998 10999 11000 11001 11003 11005 11006 11007 11008 11009 11010 11011 11012 11012 11013 11014 11015 11015 11015 11016 11016
10794 10794 10794 10795 10795 10795 10795 10794 10795 10796 10796 10796 10797 10798 10801 10802 10804 10809 10813 10817 10823 10826 10830 10837 10844 10849 10855 10862 10868 10874 10881 10888 10895 10900 10905 10910 10915 10921 10927 10933 10940 10946 10949 10952 10954 10957 10961 10964 10967 10970 10972 10974 10976 10978 10980 10981 10982 10984 10985 10987 10989 10991 10992 10993 10995 10995 10996 10997 10997 10999 11000 11002 11003 11004 11006 11006 11008 11009 11010 11011 11012 11012 11013 11013 11013 11013 11013
10790 10790 10791 10791 10791 10792 10792 10791 10791 10792 10791 10792 10792 10793 10795 10796 10799 10803 10807 10810 10815 10818 10822 10829 10837 10844 10851 10857 10862 10869 10875 10882 10887 10892 10899 10905 10908 10912 10916 10921 10927 10934 10941 10946 10950 10953 10956 10960 10963 10965 10967 10969 10971 10973 10974 10975 10976 10978 10981 10983 10986 10987 10989 10991 10992 10992 10993 10993 10994 10995 10997 10999 11000 11001 11002 11003 11005 11006 11007 11008 11009 11009 11009 11011 11011 11010 11011
10787 10787 10788 10788 10789 10789 10788 10787 10787 10787 10787 10787 10787 10788 10790 10792 10794 10797 10801 10804 10808 10811 10817 10825 10832 10840 10846 10850 10855 10862 10868 10874 10879 10884 10891 10898 10905 10910 10913 10915 10918 10923 10931 10938 10944 10948 10951 10955 10959 10960 10962 10965 10967 10969 10969 10968 10968 10971 10975 10978 10981 10984 10986 10987 10988 10989 10989 10990 10990 10991 10993 10994 10996 10997 10998 10999 11001 11002 11003 11005 11005 11005 11006 11008 11008 11007 11008
10784 10785 10785 10785 10785 10785 10784 10783 10783 10783 10784 10784 10783 10783 10785 10787 10789 10792 10796 10799 10802 10806 10814 10821 10827 10833 10839 10844 10849 10855 10861 10867 10873 10879 10886 10893 10902 10909 10912 10913 10916 10920 10925 10930 10936 10941 10945 10949 10952 10955 10958 10960 10962 10965 10966 10966 10968 10970 10971 10974 10977 10981 10984 10984 10983 10983 10983 10982 10983 10986 10988 10989 10991 10993 10994 10995 10997 10998 11000 11001 11001 11001 11003 11005 11005 11004 11005
10781 10782 10782 10782 10782 10781 10781 10780 10780 10780 10780 10780 10779 10780 10782 10784 10786 10788 10791 10794 10797 10801 10808 10814 10819 10825 10831 10836 10842 10848 10854 10860 10867 10874 10881 10889 10898 10904 10907 10910 10913 10917 10922 10925 10929 10933 10937 10942 10947 10950 10953 10956 10958 10961 10964 10966 10969 10971 10971 10972 10975 10978 10980 10980 10978 10976 10974 10973 10976 10980 10983 10985 10987 10989 10990 10991 10993 10994 10995 10997 10997 10997 10999 11000 11001 11001 11001
10778 10779 10779 10779 10779 10778 10778 10777 10776 10776 10776 10776 10776 10777 10779 10780 10782 10783 10786 10789 10792 10794 10800 10806 10811 10817 10823 10828 10834 10842 10848 10854 10861 10867 10873 10881 10890 10896 10900 10905 10908 10912 10917 10921 10926 10929 10933 10938 10942 10944 10948 10951 10954 10958 10962 10964 10968 10969 10969 10970 10972 10974 10975 10974 10972 10972 10973 10974 10975 10978 10980 10981 10983 10984 10986 10987 10989 10990 10992 10993 10993 10994 10995 10995 10996 10996 10997
10775 10776 10777 10777 10776 10776 10775 10774 10774 10773 10773 10773 10773 10774 10775 10776 10778 10780 10782 10785 10787 10789 10794 10800 10804 10809 10815 10821 10827 10836 10842 10848 10853 10860 10866 10874 10881 10887 10892 10897 10902 10907 10912 10917 10922 10926 10930 10934 10937 10940 10944 10947 10950 10955 10959 10961 10964 10966 10966 10967 10969 10971 10972 10969 10969 10971 10972 10974 10975 10975 10977 10979 10980 10981 10982 10984 10986 10988 10989 10990 10991 10991 10991 10990 10990 10992 10994
10772 10773 10774 10774 10774 10773 10772 10772 10771 10771 10770 10770 10770 10771 10773 10773 10775 10778 10779 10780 10783 10786 10790 10795 10798 10803 10809 10814 10822 10830 10836 10841 10847 10854 10861 10867 10873 10878 10884 10890 10896 10901 10906 10912 10918 10924 10928 10932 10935 10938 10942 10944 10947 10952 10956 10957 10958 10960 10962 10962 10965 10968 10969 10966 10966 10969 10970 10971 10972 10973 10974 10976 10977 10978 10979 10981 10983 10985 10986 10987 10987 10987 10987 10987 10987 10988 10989
10770 10771 10771 10771 10771 10771 10770 10769 10769 10769 10768 10767 10767 10769 10771 10771 10772 10774 10775 10776 10779 10781 10785 10788 10792 10798 10804 10809 10817 10825 10830 10836 10843 10850 10856 10861 10866 10871 10877 10884 10890 10896 10902 10907 10915 10922 10928 10932 10935 10938 10940 10941 10943 10947 10951 10952 10953 10955 10957 10958 10960 10963 10963 10961 10962 10965 10967 10967 10968 10968 10970 10971 10972 10974 10975 10977 10979 10980 10981 10982 10983 10984 10984 10986 10986 10985 10985
10767 10768 10768 10768 10768 10768 10767 10767 10767 10766 10765 10765 10765 10767 10768 10767 10769 10771 10772 10772 10774 10776 10779 10782 10786 10793 10799 10805 10813 10820 10826 10833 10840 10846 10851 10855 10860 10865 10870 10877 10884 10891 10897 10903 10911 10918 10924 10928 10931 10933 10933 10935 10937 10941 10944 10946 10948 10950 10953 10955 10956 10957 10957 10958 10959 10961 10962 10962 10962 10964 10966 10967 10967 10969 10971 10973 10974 10974 10976 10978 10979 10980 10981 10982 10983 10982 10981
10765 10766 10766 10766 10766 10766 10765 10765 10764 10763 10763 10763 10763 10764 10764 10765 10767 10767 10766 10767 10768 10771 10773 10776 10780 10787 10794 10801 10808 10815 10821 10828 10835 10840 10844 10849 10854 10859 10864 10871 10878 10884 10891 10898 10904 10910 10915 10919 10922 10922 10922 10925 10928 10932 10937 10940 10943 10945 10948 10950 10951 10951 10953 10953 10953 10954 10956 10957 10958 10959 10961 10962 10963 10965 10967 10968 10969 10970 10972 10974 10975 10975 10976 10976 10978 10978 10976
10762 10763 10763 10763 10764 10764 10763 10762 10762 10761 10761 10761 10761 10761 10762 10763 10763 10763 10761 10762 10764 10766 10769 10771 10775 10781 10788 10795 10802 10808 10813 10819 10826 10831 10836 10842 10847 10851 10857 10865 10872 10879 10885 10892 10896 10901 10905 10910 10912 10914 10916 10919 10921 10924 10928 10932 10936 10939 10942 10944 10944 10946 10947 10946 10947 10951 10952 10951 10952 10954 10956 10958 10959 10961 10962 10962 10963 10965 10967 10970 10971 10971 10971 10971 10973 10973 10972
10760 10760 10760 10761 10762 10761 10760 10760 10760 10760 10759 10759 10759 10759 10760 10760 10759 10758 10758 10759 10760 10762 10764 10767 10771 10776 10782 10788 10794 10799 10804 10809 10815 10821 10827 10833 10838 10844 10852 10860 10867 10874 10880 10886 10890 10892 10896 10900 10903 10906 10911 10914 10914 10915 10918 10922 10927 10931 10934 10936 10936 10938 10939 10939 10943 10947 10946 10945 10947 10950 10951 10952 10954 10955 10955 10955 10957 10960 10962 10964 10964 10965 10965 10966 10967 10967 10966
10757 10757 10758 10759 10759 10758 10757 10757 10758 10757 10757 10758 10757 10757 10757 10756 10755 10754 10755 10756 10757 10758 10761 10763 10767 10771 10776 10780 10785 10790 10796 10801 10807 10813 10819 10826 10832 10839 10848 10855 10862 10869 10875 10881 10884 10886 10888 10891 10895 10899 10902 10904 10904 10905 10907 10911 10916 10921 10925 10928 10930 10931 10931 10933 10937 10939 10938 10938 10941 10943 10943 10944 10947 10949 10949 10950 10952 10954 10956 10957 10957 10957 10959 10960 10961 10961 10960
10753 10754 10755 10755 10755 10755 10755 10755 10755 10754 10755 10756 10756 10755 10755 10753 10751 10751 10752 10753 10754 10755 10757 10759 10762 10765 10769 10773 10777 10782 10788 10794 10801 10808 10815 10822 10828 10835 10842 10848 10854 10862 10868 10873 10877 10879 10880 10883 10886 10889 10892 10893 10894 10896 10898 10902 10906 10911 10915 10919 10921 10922 10924 10926 10929 10930 10930 10931 10933 10933 10935 10938 10941 10943 10943 10945 10947 10948 10949 10951 10951 10951 10952 10953 10954 10954 10953
10750 10751 10752 10752 10752 10752 10753 10753 10752 10752 10752 10753 10753 10754 10753 10751 10748 10748 10749 10750 10751 10752 10753 10755 10757 10760 10762 10766 10770 10776 10782 10788 10794 10802 10810 10817 10823 10828 10834 10840 10846 10853 10858 10864 10869 10871 10872 10875 10878 10881 10884 10885 10884 10887 10891 10894 10898 10901 10904 10908 10911 10914 10917 10919 10920 10921 10922 10923 10923 10924 10927 10931 10934 10936 10937 10939 10940 10941 10943 10944 10945 10945 10946 10946 10947 10947 10946
10747 10748 10749 10748 10749 10750 10750 10750 10750 10749 10749 10750 10751 10751 10751 10748 10746 10746 10747 10748 10748 10749 10750 10751 10752 10753 10755 10759 10763 10769 10775 10781 10789 10796 10803 10808 10814 10819 10825 10832 10839 10844 10849 10855 10860 10864 10866 10869 10872 10874 10876 10877 10877 10880 10885 10889 10891 10894 10897 10900 10903 10906 10908 10910 10912 10913 10914 10915 10916 10917 10919 10923 10926 10928 10929 10931 10932 10933 10935 10936 10937 10938 10938 10939 10940 10940 10939
10744 10744 10745 10745 10745 10746 10747 10747 10747 10747 10746 10747 10748 10748 10748 10746 10744 10743 10745 10745 10745 10745 10745 10746 10747 10748 10749 10752 10756 10762 10769 10775 10782 10790 10795 10799 10804 10810 10817 10825 10832 10837 10841 10846 10850 10854 10857 10860 10863 10865 10868 10870 10872 10875 10880 10883 10885 10887 10890 10892 10895 10897 10900 10902 10904 10905 10906 10908 10909 10911 10912 10914 10916 10919 10920 10922 10923 10926 10927 10929 10929 10929 10929 10930 10931 10931 10931
10740 10740 10741 10742 10742 10743 10743 10743 10744 10744 10743 10744 10745 10745 10745 10744 10743 10742 10742 10742 10742 10741 10741 10742 10743 10743 10744 10746 10749 10755 10762 10769 10776 10783 10788 10792 10796 10803 10810 10818 10824 10829 10833 10837 10840 10843 10846 10849 10853 10855 10859 10863 10866 10869 10872 10874 10877 10879 10882 10884 10886 10888 10891 10893 10896 10898 10899 10901 10903 10904 10906 10907 10909 10911 10913 10914 10916 10918 10919 10920 10920 10921 10921 10921 10922 10922 10922
10735 10736 10737 10738 10738 10738 10738 10739 10740 10740 10740 10740 10741 10742 10742 10742 10742 10741 10740 10740 10739 10738 10737 10738 10739 10739 10739 10741 10744 10749 10755 10762 10770 10776 10781 10785 10789 10796 10803 10811 10817 10821 10824 10828 10832 10835 10837 10841 10844 10846 10849 10855 10859 10861 10862 10864 10867 10871 10873 10875 10877 10880 10882 10885 10888 10891 10893 10894 10896 10898 10899 10900 10902 10904 10905 10907 10908 10909 10910 10911 10912 10911 10912 10912 10912 10913 10913
10731 10732 10732 10733 10734 10734 10734 10735 10736 10737 10736 10737 10737 10738 10739 10739 10739 10739 10738 10737 10737 10736 10734 10734 10735 10736 10736 10738 10741 10745 10750 10756 10763 10769 10774 10779 10783 10789 10797 10804 10810 10814 10816 10820 10824 10826 10828 10831 10834 10836 10841 10846 10850 10851 10852 10855 10859 10863 10865 10867 10870 10873 10875 10877 10880 10883 10885 10887 10889 10891 10892 10893 10894 10896 10897 10899 10900 10901 10901 10902 10903 10903 10903 10903 10904 10904 10904
10726 10727 10727 10728 10730 10730 10729 10730 10732 10732 10733 10733 10733 10734 10735 10736 10736 10736 10736 10736 10735 10734 10733 10732 10732 10733 10734 10736 10738 10741 10745 10750 10756 10762 10767 10772 10777 10782 10789 10796 10802 10806 10808 10812 10815 10817 10818 10821 10824 10829 10833 10836 10839 10842 10844 10846 10852 10857 10859 10860 10863 10865 10867 10869 10871 10874 10877 10879 10881 10883 10884 10886 10887 10888 10889 10890 10891 10892 10893 10893 10894 10895 10896 10896 10896 10896 10896
10721 10722 10722 10723 10725 10725 10725 10726 10727 10728 10728 10729 10729 10730 10731 10732 10732 10732 10733 10733 10733 10732 10731 10730 10730 10731 10732 10734 10736 10738 10740 10744 10750 10755 10761 10766 10771 10776 10781 10787 10794 10799 10802 10805 10807 10808 10810 10812 10816 10821 10825 10828 10831 10835 10837 10839 10845 10850 10851 10853 10855 10857 10859 10861 10863 10866 10868 10870 10872 10875 10876 10877 10879 10880 10881 10882 10882 10883 10884 10885 10885 10886 10887 10888 10888 10888 10887
10716 10717 10717 10718 10720 10720 10720 10721 10722 10723 10724 10724 10724 10725 10726 10727 10728 10728 10728 10730 10730 10729 10728 10727 10728 10729 10731 10732 10733 10735 10737 10740 10745 10750 10756 10760 10764 10768 10773 10778 10785 10791 10795 10797 10799 10801 10803 10805 10807 10810 10814 10819 10824 10827 10830 10833 10838 10842 10844 10846 10848 10849 10851 10854 10856 10858 10860 10862 10864 10865 10867 10868 10870 10871 10872 10872 10873 10873 10874 10875 10876 10877 10878 10879 10879 10878 10878
10710 10711 10711 10713 10715 10715 10714 10715 10717 10718 10719 10720 10720 10720 10721 10722 10723 10724 10724 10725 10726 10726 10725 10724 10725 10726 10728 10728 10729 10731 10734 10737 10740 10745 10749 10753 10757 10761 10766 10772 10778 10783 10787 10790 10791 10792 10794 10796 10798 10800 10804 10809 10814 10819 10823 10827 10831 10834 10837 10839 10840 10841 10843 10845 10847 10849 10851 10853 10855 10856 10858 10859 10860 10861 10862 10862 10863 10863 10864 10865 10866 10868 10868 10868 10868 10868 10867
10703 10704 10706 10708 10709 10708 10708 10710 10712 10712 10714 10714 10715 10715 10715 10716 10717 10719 10719 10720 10721 10722 10722 10722 10721 10722 10723 10723 10725 10726 10728 10731 10735 10738 10742 10746 10750 10755 10759 10765 10771 10775 10779 10781 10780 10780 10783 10788 10791 10793 10796 10800 10806 10811 10815 10819 10822 10825 10827 10829 10830 10832 10834 10836 10838 10840 10841 10843 10845 10847 10848 10850 10851 10852 10853 10853 10854 10854 10854 10855 10857 10858 10858 10858 10857 10856 10855
10696 10698 10700 10701 10700 10700 10702 10705 10706 10706 10708 10709 10709 10709 10710 10711 10712 10713 10714 10715 10716 10716 10717 10717 10718 10718 10718 10719 10720 10721 10723 10725 10728 10731 10735 10739 10743 10747 10752 10758 10763 10767 10771 10772 10769 10769 10775 10781 10784 10786 10789 10793 10798 10803 10806 10809 10812 10815 10817 10819 10821 10823 10825 10826 10828 10830 10832 10834 10835 10837 10839 10841 10842 10843 10844 10845 10845 10845 10845 10846 10847 10848 10848 10848 10847 10845 10844
10690 10691 10692 10692 10692 10694 10697 10699 10699 10700 10702 10703 10704 10704 10705 10705 10706 10707 10708 10710 10710 10711 10711 10712 10713 10713 10714 10714 10715 10715 10716 10718 10721 10724 10727 10731 10735 10741 10746 10751 10754 10757 10761 10762 10760 10760 10767 10773 10776 10779 10782 10786 10789 10792 10795 10798 10802 10804 10806 10808 10811 10813 10815 10817 10819 10821 10823 10824 10826 10828 10831 10831 10832 10833 10834 10835 10836 10836 10836 10836 10838 10838 10838 10838 10837 10835 10833
10683 10684 10684 10684 10685 10687 10690 10692 10692 10694 10696 10697 10698 10698 10699 10700 10701 10701 10702 10704 10705 10705 10706 10706 10707 10708 10709 10709 10710 10710 10711 10712 10714 10717 10720 10723 10728 10733 10738 10743 10746 10749 10752 10753 10751 10752 10758 10763 10766 10770 10774 10777 10779 10781 10784 10787 10792 10795 10797 10799 10801 10804 10806 10808 10809 10812 10814 10816 10817 10820 10822 10822 10823 10825 10825 10825 10825 10826 10826 10826 10828 10829 10829 10828 10827 10825 10823
10677 10676 10677 10677 10679 10682 10684 10685 10687 10688 10689 10691 10692 10693 10693 10694 10695 10696 10697 10698 10699 10700 10700 10700 10701 10703 10703 10704 10704 10705 10705 10706 10707 10710 10712 10716 10719 10724 10729 10734 10738 10742 10744 10745 10744 10745 10750 10754 10758 10762 10766 10768 10770 10772 10774 10777 10781 10784 10787 10790 10793 10795 10798 10800 10801 10804 10806 10807 10809 10811 10813 10814 10815 10816 10816 10816 10816 10816 10815 10816 10818 10819 10820 10819 10817 10814 10811
10670 10669 10669 10671 10674 10676 10678 10680 10681 10682 10683 10685 10686 10687 10688 10689 10690 10690 10691 10692 10693 10693 10694 10694 10695 10696 10697 10698 10698 10699 10699 10700 10701 10702 10705 10708 10711 10715 10720 10726 10731 10734 10737 10738 10738 10739 10742 10746 10750 10754 10757 10759 10761 10763 10765 10768 10771 10774 10777 10780 10783 10786 10789 10791 10794 10796 10798 10799 10800 10802 10803 10804 10805 10806 10806 10806 10806 10806 10805 10806 10808 10809 10810 10809 10806 10802 10798
10663 10662 10663 10666 10668 10669 10670 10672 10674 10675 10677 10679 10681 10682 10682 10683 10684 10684 10685 10686 10687 10687 10688 10688 10688 10689 10690 10691 10691 10691 10692 10693 10694 10695 10697 10701 10704 10707 10712 10718 10724 10728 10730 10731 10731 10731 10733 10737 10742 10745 10747 10748 10750 10753 10756 10758 10761 10764 10767 10770 10774 10777 10780 10783 10786 10788 10789 10790 10791 10793 10794 10795 10795 10796 10795 10795 10795 10794 10794 10795 10797 10798 10799 10798 10794 10790 10787
10657 10656 10657 10659 10661 10662 10663 10665 10666 10669 10672 10675 10676 10676 10677 10677 10679 10679 10679 10679 10680 10681 10680 10681 10682 10682 10683 10682 10682 10683 10685 10686 10687 10688 10690 10694 10698 10702 10706 10711 10716 10720 10722 10723 10723 10724 10725 10728 10731 10734 10736 10738 10740 10744 10747 10750 10753 10756 10758 10761 10765 10768 10771 10774 10777 10779 10780 10782 10783 10784 10784 10785 10785 10785 10785 10785 10784 10783 10783 10784 10786 10787 10787 10784 10781 10778 10776
10649 10648 10650 10653 10655 10656 10657 10658 10660 10663 10666 10668 10669 10670 10671 10672 10673 10674 10674 10674 10674 10674 10674 10674 10675 10675 10674 10673 10673 10674 10676 10677 10680 10682 10684 10688 10693 10696 10698 10701 10706 10710 10713 10715 10716 10717 10718 10719 10722 10726 10728 10730 10734 10737 10740 10743 10745 10748 10750 10753 10756 10759 10762 10765 10767 10769 10771 10772 10773 10774 10774 10775 10775 10775 10775 10775 10774 10773 10772 10774 10775 10775 10773 10771 10769 10766 10763
10641 10642 10644 10648 10649 10650 10650 10651 10653 10656 10658 10661 10663 10664 10665 10666 10667 10668 10668 10668 10668 10668 10668 10668 10668 10666 10665 10665 10665 10666 10667 10669 10672 10675 10677 10680 10685 10688 10690 10692 10696 10700 10703 10705 10708 10710 10711 10712 10715 10718 10721 10724 10727 10730 10733 10735 10737 10739 10742 10744 10747 10750 10752 10755 10757 10759 10761 10762 10762 10763 10763 10764 10764 10764 10764 10764 10763 10761 10761 10762 10762 10761 10760 10759 10757 10754 10751
10634 10636 10639 10641 10642 10643 10644 10645 10647 10648 10651 10654 10657 10658 10659 10659 10660 10661 10662 10662 10662 10661 10661 10661 10660 10659 10658 10657 10657 10658 10659 10661 10664 10667 10669 10673 10677 10679 10682 10685 10689 10691 10694 10697 10700 10703 10704 10706 10708 10711 10714 10717 10719 10722 10724 10726 10728 10730 10732 10735 10737 10739 10741 10743 10746 10747 10749 10750 10751 10751 10752 10752 10753 10753 10753 10752 10750 10750 10750 10750 10749 10747 10746 10745 10743 10740 10737
10628 10631 10633 10634 10636 10637 10638 10639 10640 10642 10644 10648 10650 10652 10652 10653 10653 10654 10654 10655 10655 10654 10654 10654 10654 10653 10652 10651 10651 10651 10652 10654 10656 10659 10662 10665 10668 10671 10674 10678 10681 10684 10687 10690 10693 10695 10697 10698 10701 10703 10706 10709 10711 10713 10716 10718 10720 10721 10723 10725 10727 10729 10730 10732 10734 10735 10736 10737 10739 10740 10740 10740 10740 10741 10741 10739 10738 10737 10737 10736 10735 10733 10732 10731 10728 10725 10723
10623 10625 10627 10629 10630 10631 10631 10632 10633 10635 10638 10641 10643 10644 10645 10646 10646 10647 10647 10647 10648 10648 10647 10647 10647 10647 10646 10646 10646 10646 10647 10648 10650 10652 10654 10657 10661 10664 10667 10670 10674 10677 10681 10684 10686 10688 10690 10692 10695 10697 10699 10701 10703 10706 10708 10710 10711 10713 10714 10715 10717 10718 10720 10721 10722 10724 10724 10725 10726 10728 10728 10728 10728 10729 10729 10727 10725 10725 10724 10722 10720 10719 10718 10716 10713 10711 10708
10617 10619 10622 10623 10623 10623 10624 10626 10627 10628 10631 10633 10635 10637 10638 10639 10639 10640 10641 10641 10641 10641 10641 10641 10641 10642 10642 10642 10641 10642 10642 10643 10645 10646 10648 10651 10654 10658 10661 10665 10668 10671 10674 10677 10680 10682 10684 10687 10689 10691 10692 10693 10696 10698 10700 10702 10703 10705 10706 10707 10708 10709 10709 10710 10712 10713 10714 10713 10714 10715 10716 10715 10715 10716 10716 10715 10714 10713 10712 10710 10707 10705 10704 10701 10698 10696 10694
10612 10614 10616 10617 10616 10616 10617 10619 10620 10621 10623 10625 10627 10629 10631 10632 10633 10634 10634 10635 10635 10635 10636 10636 10636 10636 10637 10637 10638 10638 10638 10639 10640 10642 10644 10646 10649 10652 10656 10659 10663 10665 10668 10671 10673 10676 10678 10680 10683 10684 10684 10686 10689 10691 10693 10694 10696 10696 10697 10698 10699 10699 10700 10700 10701 10702 10703 10703 10703 10704 10704 10703 10703 10703 10703 10702 10701 10700 10700 10699 10697 10694 10691 10688 10684 10680 10679
10606 10608 10609 10610 10610 10610 10611 10613 10614 10615 10616 10618 10620 10622 10624 10625 10627 10627 10628 10629 10629 10629 10630 10631 10632 10632 10632 10633 10634 10634 10635 10636 10637 10639 10641 10643 10645 10648 10651 10654 10657 10660 10662 10665 10668 10670 10672 10674 10675 10677 10678 10680 10683 10684 10686 10687 10688 10688 10689 10689 10690 10690 10690 10690 10691 10692 10692 10692 10692 10693 10692 10691 10690 10690 10690 10688 10687 10687 10687 10687 10685 10682 10680 10677 10672 10668 10665
10601 10602 10603 10605 10605 10605 10606 10607 10608 10609 10610 10612 10613 10615 10616 10619 10621 10621 10622 10623 10624 10624 10625 10627 10627 10628 10628 10628 10629 10631 10632 10633 10635 10637 10639 10641 10643 10645 10647 10650 10652 10655 10657 10660 10662 10665 10666 10668 10669 10671 10673 10674 10676 10677 10678 10679 10680 10681 10681 10681 10681 10681 10681 10682 10682 10682 10682 10682 10682 10682 10681 10679 10678 10677 10677 10675 10673 10672 10673 10672 10671 10668 10667 10665 10660 10656 10653
10595 10596 10597 10598 10599 10600 10601 10602 10602 10602 10604 10605 10607 10608 10609 10611 10613 10615 10616 10617 10618 10619 10621 10622 10623 10624 10624 10624 10625 10627 10628 10630 10632 10635 10637 10639 10641 10642 10644 10647 10649 10651 10654 10656 10658 10660 10661 10663 10664 10666 10667 10668 10669 10670 10671 10672 10673 10674 10674 10674 10673 10673 10673 10673 10673 10673 10673 10672 10672 10672 10671 10669 10667 10666 10665 10664 10661 10659 10658 10657 10655 10652 10652 10650 10647 10642 10638
10588 10589 10590 10591 10592 10593 10594 10594 10594 10596 10597 10598 10600 10600 10601 10603 10606 10608 10610 10611 10612 10614 10615 10617 10618 10619 10620 10621 10622 10624 10625 10627 10630 10632 10634 10636 10638 10640 10642 10644 10646 10648 10650 10652 10654 10655 10657 10658 10659 10661 10662 10663 10664 10664 10665 10665 10666 10666 10666 10666 10666 10665 10665 10664 10664 10664 10663 10663 10662 10662 10660 10659 10657 10656 10655 10652 10650 10648 10647 10644 10641 10638 10637 10636 10632 10627 10623
10579 10579 10580 10581 10583 10585 10585 10586 10587 10589 10590 10592 10593 10594 10595 10597 10599 10602 10604 10605 10606 10608 10609 10611 10613 10614 10616 10618 10619 10621 10622 10625 10627 10629 10631 10633 10635 10637 10639 10641 10642 10644 10647 10648 10650 10651 10652 10654 10655 10655 10656 10657 10657 10658 10658 10658 10658 10658 10658 10658 10658 10657 10657 10656 10655 10655 10654 10653 10653 10652 10650 10648 10647 10646 10644 10641 10638 10636 10635 10632 10629 10625 10624 10621 10617 10612 10608
10569 10570 10570 10572 10574 10576 10578 10579 10582 10584 10586 10588 10590 10591 10591 10592 10594 10595 10597 10598 10599 10601 10603 10605 10608 10610 10613 10615 10616 10618 10620 10622 10624 10627 10629 10630 10632 10634 10636 10637 10639 10641 10643 10644 10645 10646 10647 10648 10649 10650 10650 10651 10651 10651 10651 10651 10651 10651 10650 10650 10650 10649 10649 10647 10646 10646 10645 10644 10642 10641 10639 10637 10635 10633 10631 10628 10626 10623 10621 10618 10615 10611 10608 10605 10602 10598 10593
10563 10563 10564 10567 10569 10570 10572 10575 10579 10582 10584 10585 10587 10587 10587 10587 10588 10589 10591 10592 10595 10597 10599 10602 10604 10607 10609 10612 10613 10615 10617 10619 10621 10623 10625 10627 10629 10631 10632 10633 10634 10636 10638 10640 10640 10641 10642 10643 10644 10644 10644 10644 10644 10644 10644 10643 10643 10643 10642 10641 10641 10640 10640 10638 10636 10635 10635 10633 10632 10629 10626 10624 10623 10622 10619 10616 10613 10610 10608 10605 10601 10597 10594 10591 10588 10584 10580
10560 10561 10563 10566 10569 10571 10573 10575 10578 10580 10581 10583 10584 10584 10583 10583 10584 10586 10588 10590 10593 10595 10597 10600 10602 10604 10607 10609 10611 10612 10614 10615 10617 10619 10621 10622 10624 10626 10627 10628 10629 10631 10633 10634 10635 10635 10636 10637 10637 10637 10637 10637 10637 10636 10636 10636 10635 10634 10633 10633 10632 10631 10630 10628 10626 10624 10623 10622 10621 10618 10615 10612 10610 10609 10608 10604 10600 10597 10595 10592 10588 10584 10581 10578 10574 10570 10567
10560 10561 10563 10564 10566 10569 10573 10576 10578 10579 10580 10581 10581 10580 10581 10581 10583 10585 10587 10589 10591 10594 10596 10598 10600 10602 10604 10606 10608 10609 10610 10612 10614 10615 10616 10618 10620 10621 10621 10623 10624 10625 10626 10627 10628 10628 10629 10629 10629 10629 10629 10629 10629 10628 10628 10627 10626 10625 10624 10623 10622 10621 10620 10619 10616 10613 10611 10609 10608 10607 10604 10600 10597 10595 10594 10592 10588 10583 10580 10578 10575 10572 10569 10565 10561 10557 10552
10561 10562 10564 10565 10566 10568 10572 10576 10578 10579 10579 10579 10578 10579 10580 10581 10582 10584 10586 10588 10590 10592 10594 10596 10597 10599 10601 10602 10604 10605 10606 10608 10609 10611 10612 10614 10615 10615 10616 10617 10618 10619 10620 10621 10621 10621 10622 10622 10622 10622 10622 10621 10620 10620 10620 10619 10617 10616 10615 10613 10611 10610 10609 10608 10605 10601 10599 10598 10596 10594 10592 10589 10585 10582 10580 10578 10575 10571 10568 10565 10562 10559 10556 10553 10550 10545 10539
10561 10563 10565 10567 10568 10570 10575 10579 10580 10578 10577 10578 10578 10579 10579 10581 10582 10583 10585 10586 10588 10590 10591 10593 10595 10596 10598 10599 10601 10602 10602 10603 10605 10606 10608 10609 10609 10610 10610 10611 10612 10613 10614 10614 10614 10614 10614 10614 10614 10614 10614 10613 10612 10612 10611 10610 10608 10607 10606 10604 10600 10598 10597 10597 10594 10590 10587 10586 10585 10583 10581 10578 10575 10572 10568 10565 10563 10560 10556 10553 10550 10547 10544 10540 10536 10533 10528